Regional Weather Roundup
Issued by NWS State College, PA

Home | Current Version | Previous Version | Graphics & Text | Print | Product List | Glossary On
Versions: 1 2 3 4 5 6 7 8 9 10 11 12 13 14 15 16 17 18 19 20 21 22 23 24 25 26 27 28 29 30 31 32 33 34 35 36 37 38 39 40 41 42 43 44 45 46 47 48 49 50
000
ASUS41 KCTP 212310
RWRCTP

REGIONAL WEATHER ROUNDUP
NATIONAL WEATHER SERVICE STATE COLLEGE PA
700 PM EDT SAT APR 21 2018

Note: "fair" indicates few or no clouds below 12,000 feet with no
significant weather and/or obstructions to visibility.

* = STATION THAT DOES NOT REPORT PRECIPITATION /E.G. RAIN...SNOW...ETC/
    THUNDER OR FOG.

PAZ002>004-007>009-013>016-020>023-029>032-220000-
WESTERN PENNSYLVANIA

CITY           SKY/WX    TMP DP  RH WIND       PRES   REMARKS
ERIE           FAIR      48  27  44 NW5       30.41S
MEADVILLE      FAIR      49  28  44 N8        30.37S
FRANKLIN*      FAIR      53  21  28 N5        30.35S
NEW CASTLE     NOT AVBL
BEAVER COUNTY  NOT AVBL
BUTLER*        FAIR      55  21  26 VRB3      30.35S
PITTSBURGH INT PTSUNNY   55  17  22 N3        30.34F
PITTSBURGH     FAIR      55  22  27 CALM      30.33F
INDIANA*       SUNNY     55  23  28 CALM      30.37S
LATROBE        CLOUDY    55  23  28 CALM      30.35F
WASHINGTON CO* FAIR      55  27  34 NE3       30.37F
$$

PAZ004>006-010>012-017>019-024>028-033>037-041-042-045-046-049>053-220000-
CENTRAL PENNSYLVANIA

CITY           SKY/WX    TMP DP  RH WIND       PRES   REMARKS
BRADFORD       FAIR      50  18  28 N8        30.34S
DUBOIS         FAIR      54  22  28 W7        30.32S
CLEARFIELD     FAIR      57  20  23 NW6       30.32R
JOHNSTOWN      FAIR      51  17  26 NW7       30.32R
ALTOONA        FAIR      58  23  26 CALM      30.32S
STATE COLLEGE  CLEAR     57  21  24 N3        30.31S
WILLIAMSPORT   FAIR      59  16  18 N8        30.30S
SELINSGROVE    FAIR      57  33  40 CALM      30.31F
FT INDIANTOWN  FAIR      58  23  26 NW7       30.31F
CAPITAL CITY   FAIR      60  28  29 SW5       30.32S
HARRISBURG     CLOUDY    57  29  34 CALM      30.32S
YORK           FAIR      58  26  29 CALM      30.33R
$$

PAZ038>040-043-044-047-048-054-055-060>062-067>071-220000-
EASTERN PENNSYLVANIA

CITY           SKY/WX    TMP DP  RH WIND       PRES   REMARKS
SCRANTON       FAIR      55  19  24 NW12      30.31S
MOUNT POCONO   FAIR      49  17  28 NW13G18   30.28R
ALLENTOWN      FAIR      59  21  23 N8        30.29R
QUAKERTOWN*    CLEAR     57  27  30 VRB5G13   30.30S
READING        FAIR      58  27  30 NW8       30.30S
LANCASTER      FAIR      56  28  34 W8        30.32S
COATESVILLE    FAIR      54  28  37 W7        30.34S
POTTSTOWN      FAIR      56  25  30 W6        30.32S
BLUE BELL      FAIR      55  28  35 W3        30.32S
DOYLESTOWN     FAIR      58  24  27 W7        30.29R
WILLOW GROVE   NOT AVBL
NORTH PHILA    FAIR      59  28  30 W10       30.32S
PHILADELPHIA   CLOUDY    58  27  30 W13       30.32S
$$




USA.gov is the U.S. government's official web portal to all federal, state and local government web resources and services.